Regional Weather Roundup
Issued by NWS Sterling, VA

Home | Current Version | Previous Version | Text Only | Print | Product List | Glossary On
Versions: 1 2 3 4 5 6 7 8 9 10 11 12 13 14 15 16 17 18 19 20 21 22 23 24 25 26 27 28 29 30 31 32 33 34 35 36 37 38 39 40 41 42 43 44 45 46 47 48 49
000
ASUS41 KLWX 280210
RWRLWX

REGIONAL WEATHER ROUNDUP
NATIONAL WEATHER SERVICE BALTIMORE MD/WASHINGTON DC
900 PM EST SAT DEC 27 2014

Note: "FAIR" indicates few or no clouds below 12,000 feet
with no significant weather and/or obstructions to visibility.
 TC=TEMPERATURE CELSIUS

 * =Non NWS site. Station does not report precipitation (e.g. rain,
    snow, etc.), thunder, or fog.

DCZ001-MDZ009-015-VAZ040>042-051-053>054-280300-
WASHINGTON METRO

CITY           SKY/WX    TMP DP  RH WIND       PRES   REMARKS
WASHINGTON NAT MOCLDY    49  34  56 S7        30.16F
DULLES         CLOUDY    40  33  76 CALM      30.14F
ANDREWS AFB    PTCLDY    44  36  73 S6        30.15F
FT BELVOIR     PTCLDY    39  34  83 CALM      30.16F
QUANTICO       PTCLDY    42  36  79 SW5       30.17F
COLLEGE PARK*  PTCLDY    39  34  81 CALM      30.15F
LEESBURG*      PTCLDY    45  34  65 CALM      30.15F
MANASSAS*      PTCLDY    37  36  93 CALM      30.15F
GAITHERSBURG*  PTCLDY    41  30  65 CALM      30.18S

$$

MDZ006>007-011-014-280300-
BALTIMORE METRO

CITY           SKY/WX    TMP DP  RH WIND       PRES   REMARKS
BWI AIRPORT    MOCLDY    41  33  73 CALM      30.15S
MD SCIENCE CTR   N/A     46  36  68 MISG      30.16S
ANNAPOLIS      PTCLDY    44  37  76 SE5       30.15S
FORT MEADE*    PTCLDY    36  32  87 CALM      30.18S

$$

MDZ012-015-019>023-280300-
MARYLAND EASTERN SHORE

CITY           SKY/WX    TMP DP  RH WIND       PRES   REMARKS
OCEAN CITY     CLEAR     45  42  89 SW5       30.19F
SALISBURY      PTCLDY    45  37  73 S5        30.18F
BAY BRIDGE AP*   N/A     43  36  75 CALM      30.16S
CAMBRIDGE*     PTCLDY    46  39  76 S6        30.16F

$$

MDZ017>025-280300-
SOUTHERN MARYLAND

CITY           SKY/WX    TMP DP  RH WIND       PRES   REMARKS
PATUXENT RIVER MOCLDY    40  36  86 S5        30.17F
ST INIGOES     MOCLDY    40  35  83 CALM      30.17F
LEONARDTOWN*   MOCLDY    45  36  70 CALM      30.18F

$$

MDZ003>005-280300-
NORTH CENTRAL MARYLAND

CITY           SKY/WX    TMP DP  RH WIND       PRES   REMARKS
FREDERICK*     PTCLDY    39  32  75 S3        30.16F
HAGERSTOWN APT PTCLDY    50  28  42 S8        30.10F
WESTMINSTER*   PTCLDY    46  32  57 S6        30.13F

$$

MDZ501>502-280300-
WESTERN MARYLAND

CITY           SKY/WX    TMP DP  RH WIND       PRES   REMARKS
OAKLAND*       MOCLDY    48  -6  10 SW13      30.08F
CUMBERLAND*    MOCLDY    45  32  61 CALM      30.12F

$$

VAZ025>031-280300-
SHENANDOAH VALLEY

CITY           SKY/WX    TMP DP  RH WIND       PRES   REMARKS
WINCHESTER*    PTCLDY    45  28  53 CALM      30.10F
FRONT ROYAL*   MOCLDY    43  32  65 CALM      30.10F
LURAY*         FAIR      45  34  65 CALM      30.11F
NEW MARKET*    FAIR      39  32  76 CALM      30.12F
STAUNTON*      MOCLDY    45  26  49 SW3       30.16S
WAYNESBORO*    FAIR      48  23  37 CALM      30.15S

$$

WVZ021-048>050-054>055-280300-
EASTERN WEST VIRGINIA PANHANDLE

CITY           SKY/WX    TMP DP  RH WIND       PRES   REMARKS
MARTINSBURG    PTCLDY    42  27  55 CALM      30.11F
PETERSBURG*    PTCLDY    38  32  78 CALM      30.10F

$$

VAZ036>039-050-280300-
CENTRAL FOOTHILLS

CITY           SKY/WX    TMP DP  RH WIND       PRES   REMARKS
CHARLOTTESVILL PTCLDY    48  34  58 W3        30.16S
CULPEPER*      PTCLDY    37  34  87 CALM      30.15F
ORANGE*        PTCLDY    37  36  93 CALM      30.16F
GORDONSVILLE*  FAIR      40  34  79 SW3       30.15F
WARRENTON*     FAIR      35  35 100 CALM      30.14F

$$

VAZ055>057-280300-
NORTH AND CENTRAL PIEDMONT

CITY           SKY/WX    TMP DP  RH WIND       PRES   REMARKS
FREDERICKSBRG* PTCLDY    40  37  89 CALM      30.15F
STAFFORD*      PTCLDY    37  32  82 CALM      30.20F

$$

NCZ024-NYZ072-PAZ021-071-VAZ022-071-280300-
OTHER REGIONAL OBSERVATIONS

CITY           SKY/WX    TMP DP  RH WIND       PRES   REMARKS
NEW YORK CITY  CLEAR     52  31  44 SW8       30.16F
PHILADELPHIA   MOCLDY    45  34  65 SW5       30.16F
PITTSBURGH     CLOUDY    52  24  33 S5        30.03F
ROANOKE        CLOUDY    54  33  45 E7        30.18F
RICHMOND       CLOUDY    51  38  60 S7        30.18F
RALEIGH        CLOUDY    54  38  54 SW5       30.22F

$$

ANZ530>537-280300-
MARINE OBSERVATIONS

STATION/POSITION TIME  TEMP    WIND        PRES
                       AIR SEA DIR/SP/G
                 (UTC) (F)     (DEG/KT/KT) (MB)
THOMAS PT LIGHT  0200   44 43  210/  6/  6 1022.4R
BALT KEY BRIDGE  0200   45      80/  3/  3 1021.0R
COVE POINT       0200   44     190/ 10/ 10 1021.5F
LEWISETTA        0200   46 45     CALM     1021.7S
SOLOMONS ISLAND  0200      44                N/A
PINEY POINT      0200          160/  4/  5   N/A

$$



USA.gov is the U.S. government's official web portal to all federal, state and local government web resources and services.